Regional Weather Roundup
Issued by NWS

Home | Current Version | Previous Version | Graphics & Text | Print | Product List | Glossary On
Versions: 1 2 3 4 5 6 7 8 9 10 11 12 13 14 15 16 17 18 19 20 21 22 23 24 25 26 27 28 29 30 31 32 33 34 35 36 37 38 39 40 41 42 43 44 45 46 47 48 49 50
000
ASUS43 KMPX 312001
RWRMN
WEATHER ROUNDUP FOR MINNESOTA
NATIONAL WEATHER SERVICE TWIN CITIES/CHANHASSEN MN
200 PM CST SAT JAN 31 2015


NOTE: "FAIR" INDICATES FEW OR NO CLOUDS BELOW 12,000 FEET WITH NO
SIGNIFICANT WEATHER AND/OR OBSTRUCTIONS TO VISIBILITY. N/A MEANS
CURRENT SKY AND/OR WEATHER CONDITIONS ARE NOT AVAILABLE.

MNZ060>063-068>070-312100-
   Twin Cities Metro

CITY           SKY/WX    TMP DP  RH WIND       PRES   REMARKS
TWIN CITIES    CLOUDY    28  18  66 NE9       30.19F WCI  19
ST PAUL        CLOUDY    28  19  69 NE9       30.21F WCI  19
CRYSTAL        CLOUDY    29  19  66 NE8       30.19F WCI  21
LAKEVILLE      CLOUDY    27  21  80 NE10      30.17F WCI  17
EDEN PRAIRIE   CLOUDY    28  20  71 E10       30.18F WCI  19
SOUTH ST PAUL  CLOUDY    29  20  70 N6        30.19S WCI  23
LAKE ELMO      CLOUDY    28  21  74 NE9       30.20S WCI  20
$$
MNZ001>005-007-008-013>017-022>024-027-028-312100-
   Northwest Minnesota

CITY           SKY/WX    TMP DP  RH WIND       PRES   REMARKS
BEMIDJI        SUNNY      8  -3  59 NE12      30.30R WCI  -7
HALLOCK        SUNNY     -2 -13  60 N17G23    30.48F WCI -24
ROSEAU         SUNNY      1 -11  55 N13       30.42F WCI -16
WARROAD        SUNNY      1 -11  55 NE7       30.42S WCI -11
THIEF RVR FALL SUNNY      1  -9  60 N15       30.39F WCI -18
CROOKSTON      SUNNY      3  -8  60 N15G21    30.43S WCI -15
FOSSTON        SUNNY      9   0  66 N15       30.33F WCI  -8
DETROIT LAKES  SUNNY     18   0  45 N7        30.27S WCI   8
MOORHEAD       SUNNY     14  -2  48 N18G24    30.34S WCI  -3
PARK RAPIDS    SUNNY     16  -7  35 N13       30.24F WCI   2
MAHNOMEN       FAIR      10  -3  55 N16       30.31S WCI  -7
$$
MNZ006-009>011-018-025>026-312100-
   North Central Minnesota

CITY           SKY/WX    TMP DP  RH WIND       PRES   REMARKS
BAUDETTE       SUNNY      1  -9  62 N14       30.38S WCI -17
FLAG ISLAND    SUNNY     -2 -11  65 N15       30.42F WCI -22
INTL FALLS     SUNNY      6  -7  54 N9        30.34S WCI  -8
WASKISH        MOSUNNY    7  -4  61 N8        30.35S WCI  -6
BIG FORK       SUNNY     12   0  57 N7        30.29S WCI   2
LONGVILLE      SUNNY     16   1  53 N7        30.26S WCI   6
GRAND RAPIDS   SUNNY     16   1  53 N10G18    30.24S WCI   3
CRANE LAKE     SUNNY      7  -6  56 N7        30.35R WCI  -5
ORR            SUNNY     10  -8  44 N5        30.26S WCI   2
COOK           SUNNY     10  -4  52 N8        30.28S WCI  -1
WALKER         FAIR      13  -3  50 N8        30.27S WCI   1
$$
MNZ012-019>021-037-312100-
   Northeast Minnesota

CITY           SKY/WX    TMP DP  RH WIND       PRES   REMARKS
DULUTH         SUNNY     20   3  48 N9        30.21S WCI   9
ELY            SUNNY     10  -6  48 N5        30.25S WCI   2
HIBBING        SUNNY     16  -2  45 N12       30.25S WCI   3
EVELETH        SUNNY     16   0  48 NE7       30.26R WCI   6
DULUTH HARBOR  SUNNY     25   7  46 N6        30.28R WCI  18
TWO HARBORS    SUNNY     25   7  46 N8        30.22R WCI  16
SILVER BAY     SUNNY     21   3  45 NW7       30.22S WCI  13
GRAND MARAIS     N/A     16  -1  47 CALM      30.29R
G MARAIS ARPRT SUNNY      7  -9  47 NW8       30.20R WCI  -6
$$
MNZ029>031-032-039>041-046>048-054>057-064-312100-
   West Central Minnesota

CITY           SKY/WX    TMP DP  RH WIND       PRES   REMARKS
FERGUS FALLS   MOSUNNY   19   1  45 N8        30.28F WCI   9
WHEATON        FAIR      18   9  68 N14G20    30.26F WCI   4
MORRIS         PTSUNNY   28  18  64 NE10      30.19F WCI  19
ALEXANDRIA     PTSUNNY   25   8  48 NE16      30.19F WCI  12
ELBOW LAKE     CLOUDY    22   3  42 NE10      30.21F WCI  12
WADENA         SUNNY     21   0  39 N12       30.23S WCI   9
GLENWOOD       PTSUNNY   27  12  54 NE13      30.18F WCI  16
APPLETON       CLOUDY    27  19  74 NE10      30.19F WCI  17
BENSON         CLOUDY    28  18  64 E10       30.19F WCI  19
ORTONVILLE     CLOUDY    19  16  86 N14       30.20F WCI   6
MADISON        CLOUDY    27  23  86 N14       30.19F WCI  15
WILLMAR        CLOUDY    27  19  74 NE9       30.19F WCI  17
$$
MNZ033>034-036-042>043-049>051-058-059-312100-
   Central Minnesota

CITY           SKY/WX    TMP DP  RH WIND       PRES   REMARKS
ST CLOUD       MOSUNNY   29  14  53 NE9       30.19F WCI  20
SAUK CENTRE    MOCLDY    26   8  44 NE12      30.19F WCI  16
PAYNESVILLE    PTSUNNY   25  15  67 N9        30.18F WCI  15
AITKIN         SUNNY     27   5  39 N9        30.22R WCI  17
PINE RIVER     SUNNY     18   3  53 NW9       30.28S WCI   6
BRAINERD       SUNNY     24   4  42 N8        30.23S WCI  15
STAPLES        SUNNY     21  -6  30 NE8       30.22F WCI  12
LONG PRAIRIE   PTSUNNY   27   5  39 N10G17    30.20S WCI  17
LITTLE FALLS   MOSUNNY   27   7  43 N7        30.21F WCI  19
LITCHFIELD     CLOUDY    27  21  80 NE8       30.19S WCI  18
BUFFALO        CLOUDY    28  19  69 N9        30.20S WCI  19
MAPLE LAKE     CLOUDY    28  21  74 NE8       30.20S WCI  20
$$
MNZ037-044-045-052-053-312100-
   East Central Minnesota

CITY           SKY/WX    TMP DP  RH WIND       PRES   REMARKS
PRINCETON      PTSUNNY   30  16  55 N10       30.20F WCI  21
MORA           SUNNY     28   9  43 NE6       30.22F WCI  22
CAMBRIDGE      PTSUNNY   30  18  59 N9        30.18F WCI  22
RUSH CITY      MOSUNNY   29  13  51 N10       30.20F WCI  20
MOOSE LAKE     SUNNY     27   7  43 N7        30.21S WCI  19
HINCKLEY       FAIR      28  10  47 NE8       30.22S WCI  20
CLOQUET        SUNNY     19   3  49 NW13      30.22R WCI   7
MCGREGOR       SUNNY     23   9  54 N9        30.23R WCI  13
$$
MNZ071>073-080-081-089-090-097-098-312100-
   Southwest Minnesota

CITY           SKY/WX    TMP DP  RH WIND       PRES   REMARKS
MONTEVIDEO     CLOUDY    25  21  86 E13       30.19F WCI  13
GRANITE FALLS  CLOUDY    26  23  87 N10       30.18F WCI  16
CANBY          CLOUDY    22  20  90 N10       30.18F WCI  11
MARSHALL       CLOUDY    25  19  80 NE14      30.16F WCI  13
REDWOOD FALLS  CLOUDY    27  23  85 NE7G16    30.16F WCI  19
OLIVIA         CLOUDY    27  23  86 NE13      30.17F WCI  16
PIPESTONE      FOG       25  23  93 NE8       30.08F VSB 1   WCI  16
WINDOM         CLOUDY    27  27 100 NE10      30.11F FOG     WCI  17
WORTHINGTON    CLOUDY    25  23  93 NE15      30.10F WCI  12
JACKSON        CLOUDY    28  27  93 NE13      30.11F FOG     WCI  18
TRACY          CLOUDY    26  26  97 NE13      30.14F FOG     WCI  15
SLAYTON        FOG       24  24  97 NE9       30.11F VSB 1/2 WCI  15
$$
MNZ065>067-074>077-082>085-091>093-312100-
   South Central Minnesota

CITY           SKY/WX    TMP DP  RH WIND       PRES   REMARKS
MANKATO        CLOUDY    28  23  80 NE10      30.16S WCI  19
NEW ULM        CLOUDY    27  25  93 NE8       30.16S WCI  18
ST JAMES       CLOUDY    28  27  93 N13       30.15F FOG     WCI  18
FAIRMONT       CLOUDY    28  25  86 NE10      30.11F VSB 1/4 WCI  19
GLENCOE        CLOUDY    28  24  85 N7        30.17S WCI  21
FARIBAULT      CLOUDY    28  25  86 N7        30.17R FOG     WCI  21
OWATONNA       CLOUDY    28  25  86 N8        30.15S FOG     WCI  20
WASECA         CLOUDY    30  27  86 NE9       30.16S FOG     WCI  22
ALBERT LEA     CLOUDY    30  28  93 NE10      30.11F WCI  21
$$
MNZ078>079-086>088-094>096-312100-
   Southeast Minnesota

CITY           SKY/WX    TMP DP  RH WIND       PRES   REMARKS
ROCHESTER      CLOUDY    30  24  78 NE8       30.13F WCI  22
RED WING       CLOUDY    30  21  69 NE3       30.18S
STANTON        CLOUDY    30  25  79 NE8       30.16S WCI  23
DODGE CENTER   CLOUDY    30  27  86 NE8       30.13S WCI  23
WINONA         CLOUDY    32  25  74 NE5       30.19R WCI  27
AUSTIN         CLOUDY    30  27  86 NE8       30.12S WCI  23
PRESTON        CLOUDY    29  25  84 NE3       30.14R
$$
ABBREVIATIONS USED IN REMARKS
   TC - TEMPERATURES IN CELSIUS
  WCI - WIND CHILL INDEX
   HX - HEAT INDEX
  VSB - VISIBILITY
$$



USA.gov is the U.S. government's official web portal to all federal, state and local government web resources and services.